Home > Time Zones > World Clock > Weather > Italy > Milan > Past weeks

Flag for Italy Weather past 2 weeks in Milan, Italy

Now
77 °F

Passing clouds.


Feels Like: 78 °F
Forecast: 58 / 75 °F
Wind: 5 mph from Southeast

Location: Milan / Linate

Current Time: Sep 2, 2014 at 7:27:14 PM

Latest Report: Sep 2, 2014 at 6:50 PM


Visibility: N/A

Pressure: 29.86 "Hg

Humidity: 39%

Dew point: 50 °F

Location of MilanLocation

Historic Weather in Milan — Graph

°F

Milan temperature yesterday

Maximum temperature yesterday: 81 °F (at 1:50 PM)
Minimum temperature yesterday: 59 °F (at 6:20 AM)
Average temperature yesterday: 70 °F

Past Weeks' High & Low Weather Summary

 TemperatureHumidityPressure
High82 °F (Aug 27, 3:50 PM)100% (Aug 19, 4:50 AM)30.09 "Hg (Aug 19, 4:50 AM)
Low55 °F (Sep 2, 6:20 AM)24% (Sep 1, 1:50 PM)29.71 "Hg (Aug 31, 10:20 PM)
Average70 °F77%29.93 "Hg
* Reported Aug 18 6:20 PM — Sep 2 6:20 PM, Milan, Weather by CustomWeather, © 2014

Note: Actual official high and low records may vary slightly from our data, if they occured in-between our weather recording intervals... More about our weather records

Advertising

Milan weather history for previous 24 hours

 ConditionsComfort  
Time TempWeatherWind HumidityBarometerVisibility
6:20 PM
Sep 2
77 °FPassing clouds.7 mph36%29.86 "HgN/A
5:50 PM77 °FPassing clouds.6 mph34%29.86 "HgN/A
5:20 PM79 °FPassing clouds.6 mph32%29.86 "HgN/A
4:50 PM79 °FSunny.2 mph30%29.86 "Hg10 mi
4:20 PM79 °FSunny.5 mph34%29.86 "Hg10 mi
3:50 PM79 °FPassing clouds.5 mph30%29.86 "HgN/A
3:20 PM79 °FPassing clouds.6 mph34%29.86 "HgN/A
2:50 PM79 °FPassing clouds.6 mph37%29.86 "HgN/A
2:20 PM77 °FPassing clouds.5 mph39%29.86 "HgN/A
1:50 PM77 °FSunny.5 mph36%29.86 "Hg10 mi
1:20 PM75 °FPassing clouds.5 mph39%29.86 "HgN/A
12:50 PM75 °FPassing clouds.7 mph36%29.86 "HgN/A
12:20 PM75 °FPassing clouds.7 mph39%29.86 "HgN/A
11:50 AM73 °FPassing clouds.7 mph36%29.89 "HgN/A
11:20 AM73 °FPassing clouds.7 mph36%29.86 "HgN/A
10:50 AM72 °FPassing clouds.5 mph41%29.89 "HgN/A
10:20 AM70 °FPassing clouds.5 mph43%29.89 "HgN/A
9:50 AM68 °FPassing clouds.5 mph49%29.89 "HgN/A
9:20 AM68 °FPassing clouds.3 mph49%29.89 "HgN/A
8:50 AM66 °FSunny.2 mph60%29.86 "Hg10 mi
8:20 AM64 °FSunny.2 mph64%29.86 "Hg10 mi
7:50 AM61 °FSunny.1 mph68%29.86 "Hg10 mi
7:20 AM57 °FClear.1 mph82%29.86 "Hg10 mi
6:50 AM57 °FClear.No wind77%29.86 "Hg10 mi
6:20 AM55 °FClear.2 mph82%29.86 "Hg10 mi
5:50 AM57 °FClear.No wind77%29.86 "Hg10 mi
5:20 AM57 °FClear.1 mph77%29.86 "Hg10 mi
4:50 AM57 °FClear.1 mph82%29.83 "Hg10 mi
4:20 AM59 °FPassing clouds.3 mph77%29.86 "HgN/A
3:50 AM57 °FClear.No wind77%29.83 "Hg10 mi
3:20 AM57 °FClear.2 mph72%29.83 "Hg10 mi
2:50 AM61 °FClear.2 mph68%29.86 "Hg10 mi
2:20 AM59 °FClear.1 mph72%29.86 "Hg10 mi
1:50 AM61 °FClear.2 mph63%29.86 "Hg10 mi
1:20 AM63 °FClear.No wind64%29.86 "Hg10 mi
12:50 AM64 °FPassing clouds.3 mph49%29.86 "HgN/A
12:20 AM66 °FClear.3 mph43%29.86 "Hg10 mi
11:50 PM
Sep 1
66 °FClear.2 mph46%29.86 "Hg10 mi
11:20 PM66 °FClear.7 mph46%29.86 "Hg10 mi
10:20 PM70 °FClear.3 mph35%29.86 "Hg10 mi
9:50 PM70 °FPassing clouds.3 mph38%29.86 "HgN/A
9:20 PM72 °FPassing clouds.5 mph33%29.83 "HgN/A
8:50 PM70 °FSunny.2 mph40%29.83 "Hg10 mi
8:20 PM72 °FSunny.6 mph33%29.83 "Hg10 mi
7:50 PM72 °FSunny.9 mph33%29.80 "Hg10 mi
7:20 PM75 °FPassing clouds.9 mph31%29.80 "HgN/A
Weather by CustomWeather, © 2014

See weather overviewHow to use our weather pages